sat.trackr.live / text

‹ back to catalog

AEROCUBE 8D

NORAD 41852 · 2016-067E

PAYLOAD ACTIVE UNKNOWN

§ Identity

Operator
Country
US
Launch date
2016-11-11
Launch site
AFWTR
Launch vehicle
Mass (kg)
RCS (m²)
0.05

Purposes: tech_demo

External: N2YO · Heavens-Above · Gunter

§ Orbital elements

Epoch: 2026-05-25T02:42:35.716896Z

Period
94.49 min
Inclination
98.0717°
Eccentricity
0.0002855
Mean motion
15.24020783 rev/d
Perigee alt
491.8 km
Apogee alt
495.7 km
Semi-major
6,871.9 km
B*
2.8766e-4
RAAN
13.5316°
Arg perigee
188.6640°
Mean anomaly
171.4547°
Rev number
52,255

§ Raw data

AEROCUBE 8D1 41852U 16067E   26145.11291339  .00006892  00000+0  28766-3 0  99932 41852  98.0717  13.5316 0002855 188.6640 171.4547 15.24020783522556

JSON: /api/v1/satellites/41852 · /tle

For live sub-satellite position, see the globe view (requires WebGL).

§ Visibility from observer

Set your observer location to see the next 7 days of passes ≥ 10°. The values pass through the URL so the page stays shareable.

No JS? Fill the form by hand. The geolocation button needs JavaScript.